This demonstration page uses our WeatherBlox Daily Observations layout. Learn more.

Left ArrowRight Arrow

Hourly Observations for November 8, 2022

Temp ( °F °C ) Dew Point ( °F °C ) Humidity (%) Winds ( mph kmh ) Pressure ( in mb ) Visibility ( mi km ) Precip ( " mm )
12:15 am 00:15 Cloudy 46 7.8 28 -2.3 49 49 SE 14 22 30.21 1023 10 16 0.00 0.00
12:35 am 00:35 Cloudy 47 8.5 29 -1.5 49 49 SE 15 24 30.22 1023 10 16 0.00 0.00
12:55 am 00:55 Cloudy 47 8.6 29 -1.5 49 49 SE 18 30 30.20 1023 10 16 0.00 0.00
1:15 am 01:15 Cloudy 48 8.7 30 -0.9 51 51 SSE 16 26 30.20 1023 10 16 0.00 0.00
1:35 am 01:35 Cloudy 48 9 31 -0.4 52 52 SE 18 30 30.19 1022 10 16 0.00 0.00
1:55 am 01:55 Cloudy 49 9.2 32 -0.1 52 52 SE 17 28 30.18 1022 10 16 0.00 0.00
2:15 am 02:15 Cloudy 49 9.3 32 0 52 52 SE 16 26 30.18 1022 10 16 0.00 0.00
2:35 am 02:35 Cloudy 49 9.3 32 0.1 53 53 SSE 16 26 30.18 1022 10 16 0.00 0.00
2:55 am 02:55 Cloudy 49 9.3 33 0.5 54 54 SE 18 30 30.17 1022 10 16 0.00 0.00
3:15 am 03:15 Cloudy 49 9.2 32 0.1 53 53 SE 17 28 30.16 1021 10 16 0.00 0.00
3:35 am 03:35 Cloudy 49 9.3 33 0.5 54 54 SE 15 24 30.15 1021 10 16 0.00 0.00
3:55 am 03:55 Cloudy 49 9.6 34 1 55 55 SE 17 28 30.15 1021 10 16 0.00 0.00
4:15 am 04:15 Cloudy 49 9.5 34 1.2 56 56 SE 20 31 30.15 1021 10 16 0.00 0.00
4:35 am 04:35 Cloudy 49 9.6 35 1.6 57 57 SSE 17 28 30.15 1021 10 16 0.00 0.00
4:55 am 04:55 Cloudy 49 9.7 36 2 59 59 SSE 20 31 30.14 1021 10 16 0.00 0.00
5:15 am 05:15 Cloudy 50 9.9 37 2.6 60 60 SSE 20 31 30.13 1020 10 16 0.00 0.00
5:35 am 05:35 Cloudy 50 10 37 2.9 61 61 SE 20 31 30.12 1020 10 16 0.00 0.00
5:55 am 05:55 Cloudy 50 10 38 3.5 64 64 SSE 20 31 30.12 1020 10 16 0.00 0.00
6:15 am 06:15 Cloudy 50 10.1 39 4 66 66 SE 17 28 30.12 1020 10 16 0.00 0.00
6:35 am 06:35 Cloudy 51 10.5 41 4.9 68 68 SE 20 31 30.11 1020 10 16 0.00 0.00
6:55 am 06:55 Cloudy 51 10.5 41 5 69 69 SE 22 35 30.11 1020 10 16 0.00 0.00
7:15 am 07:15 Cloudy 51 10.5 42 5.6 72 72 SSE 18 30 30.11 1020 10 16 0.00 0.00
7:35 am 07:35 Cloudy 51 10.5 43 6.3 75 75 SE 20 31 30.11 1020 10 16 0.00 0.00
7:55 am 07:55 Cloudy 51 10.5 45 7.2 80 80 SSE 20 31 30.12 1020 10 16 0.00 0.00
8:15 am 08:15 Cloudy 51 10.3 46 7.8 84 84 SSE 18 30 30.12 1020 7 11 0.00 0.00
8:35 am 08:35 Cloudy with Mist and Fog 51 10.3 47 8.2 87 87 SSE 21 33 30.12 1020 5 8 0.00 0.00
8:55 am 08:55 Cloudy 51 10.6 47 8.5 87 87 SSE 18 30 30.12 1020 7 11 0.00 0.00
9:15 am 09:15 Cloudy with Mist and Fog 51 10.7 49 9.2 90 90 SSE 18 30 30.11 1020 4 6 0.00 0.00
9:35 am 09:35 Cloudy with Mist and Fog 51 10.8 50 9.8 94 94 SSE 18 30 30.11 1019 3 5 0.00 0.00
9:55 am 09:55 Cloudy with Mist and Fog 52 11.2 51 10.5 95 95 SSE 17 28 30.09 1019 2 3 0.00 0.00
10:15 am 10:15 Cloudy with Mist and Fog 52 11.1 51 10.5 96 96 SSE 17 28 30.09 1019 2 3 0.00 0.00
10:35 am 10:35 Cloudy with Mist and Fog 52 11.2 51 10.6 96 96 SSE 17 28 30.08 1019 2 2 0.00 0.00
10:55 am 10:55 Cloudy with Mist and Fog 53 11.6 52 11.2 97 97 SSE 20 31 30.08 1019 1 2 0.00 0.00
11:15 am 11:15 Cloudy with Mist and Fog 54 12.1 53 11.7 97 97 SSE 18 30 30.06 1018 1 2 0.00 0.00
11:35 am 11:35 Cloudy with Mist and Fog 55 12.5 54 12 97 97 SSE 18 30 30.06 1018 2 2 0.00 0.00
11:55 am 11:55 Cloudy with Mist and Fog 55 12.6 54 12.3 98 98 SSE 18 30 30.04 1017 1 1 0.00 0.00
12:15 pm 12:15 Cloudy with Fog 55 12.9 55 12.6 98 98 SSE 16 26 30.03 1017 0 0 0.00 0.00
12:35 pm 12:35 Cloudy with Mist and Fog 56 13.1 55 12.8 98 98 SSE 15 24 30.02 1016 1 1 0.00 0.00
12:55 pm 12:55 Cloudy with Fog 56 13.4 56 13.1 98 98 SE 13 20 30.00 1016 0 0 0.00 0.00
1:15 pm 13:15 Cloudy with Fog 57 14.1 57 13.9 99 99 SSE 12 19 29.99 1015 1 1 0.00 0.00
1:35 pm 13:35 Cloudy 62 16.5 61 16.2 98 98 S 16 26 29.95 1014 10 16 0.00 0.00
1:55 pm 13:55 Cloudy 63 17.4 62 16.5 94 94 S 16 26 29.93 1014 10 16 0.00 0.00
2:15 pm 14:15 Cloudy 64 18 62 16.7 92 92 S 18 30 29.91 1013 10 16 0.00 0.00
2:35 pm 14:35 Cloudy 66 19 62 16.8 87 87 S 20 31 29.88 1012 10 16 0.00 0.00
2:55 pm 14:55 Partly Cloudy 67 19.4 62 16.8 85 85 S 28 44 29.87 1012 10 16 0.00 0.00
3:15 pm 15:15 Sunny 68 19.9 62 16.6 81 81 S 28 44 29.86 1011 10 16 0.00 0.00
3:35 pm 15:35 Sunny 67 19.7 62 16.6 82 82 S 25 41 29.85 1011 10 16 0.00 0.00
3:55 pm 15:55 Partly Cloudy 69 20.6 63 17 80 80 S 22 35 29.84 1011 10 16 0.00 0.00
4:15 pm 16:15 Partly Cloudy 68 20.1 62 16.9 82 82 S 24 39 29.85 1011 10 16 0.00 0.00
4:35 pm 16:35 Partly Cloudy 68 19.8 62 16.8 83 83 S 32 52 29.84 1010 10 16 0.00 0.00
4:55 pm 16:55 Sunny 67 19.5 62 16.8 84 84 S 28 44 29.84 1011 10 16 0.00 0.00
5:15 pm 17:15 Sunny 66 19.1 62 16.7 86 86 S 29 46 29.85 1011 10 16 0.00 0.00
5:35 pm 17:35 Clear 66 19 62 16.7 87 87 S 25 41 29.85 1011 10 16 0.00 0.00
5:55 pm 17:55 Clear 65 18.6 62 16.6 88 88 S 28 44 29.86 1011 10 16 0.00 0.00
6:15 pm 18:15 Clear 65 18.5 62 16.6 89 89 S 25 41 29.87 1012 10 16 0.00 0.00
6:35 pm 18:35 Clear 65 18.2 62 16.5 90 90 S 24 39 29.87 1012 10 16 0.00 0.00
6:55 pm 18:55 Clear 64 18 62 16.5 91 91 S 24 39 29.88 1012 10 16 0.00 0.00
7:15 pm 19:15 Clear 64 17.8 61 16.3 91 91 S 21 33 29.89 1012 10 16 0.00 0.00
7:35 pm 19:35 Clear 64 17.6 61 16 90 90 S 17 28 29.90 1012 10 16 0.00 0.00
7:55 pm 19:55 Clear 64 17.5 61 16 91 91 S 18 30 29.90 1012 10 16 0.00 0.00
8:15 pm 20:15 Clear 63 17.3 61 16.1 93 93 S 22 35 29.89 1012 10 16 0.00 0.00
8:35 pm 20:35 Partly Cloudy 64 17.5 61 16.2 92 92 S 17 28 29.90 1012 10 16 0.00 0.00
8:55 pm 20:55 Mostly Cloudy 64 17.5 61 16.3 93 93 S 17 28 29.90 1012 10 16 0.00 0.00
9:15 pm 21:15 Cloudy 64 17.6 62 16.5 93 93 S 20 31 29.90 1012 10 16 0.00 0.00
9:35 pm 21:35 Cloudy 64 18 62 16.7 92 92 S 21 33 29.89 1012 10 16 0.00 0.00
9:55 pm 21:55 Cloudy 65 18.1 62 16.6 91 91 S 22 35 29.88 1012 10 16 0.00 0.00
10:15 pm 22:15 Cloudy 64 18 62 16.5 91 91 S 24 39 29.88 1012 10 16 0.00 0.00
10:35 pm 22:35 Cloudy 64 17.7 61 16.3 92 92 S 22 35 29.90 1012 10 16 0.00 0.00
10:55 pm 22:55 Cloudy 64 17.5 61 16 91 91 S 20 31 29.90 1012 10 16 0.00 0.00
11:15 pm 23:15 Mostly Cloudy 63 17.1 60 15.5 90 90 S 17 28 29.89 1012 10 16 0.00 0.00
11:35 pm 23:35 Mostly Cloudy 62 16.7 59 15.2 91 91 S 17 28 29.89 1012 10 16 0.00 0.00
11:55 pm 23:55 Partly Cloudy 62 16.6 59 15.1 91 91 S 16 26 29.90 1012 10 16 0.00 0.00

Powered by AerisWeather